| time (UTC) | temp F | wind direction | speed MPH | gust MPH | rain 1hr in | rain 24hr in | rain mn in | humidity % | barometer mb |
| 20260904031546 | 91 | 84 | 0.0 | 1.0 | 0.00 | 0.00 | 0.00 | 42 | 1004.7 |
| 20260904030043 | 91 | 101 | 0.0 | 5.0 | 0.00 | 0.00 | 0.00 | 42 | 1004.5 |
| 20260904024543 | 91 | 83 | 0.0 | 7.0 | 0.00 | 0.00 | 0.00 | 42 | 1004.4 |
| 20260904023041 | 91 | 126 | 2.0 | 7.0 | 0.00 | 0.00 | 0.00 | 42 | 1004.3 |
| 20260904021540 | 91 | 89 | 2.0 | 8.0 | 0.00 | 0.00 | 0.00 | 42 | 1004.2 |
| 20260904020009 | 92 | 86 | 2.0 | 9.0 | 0.00 | 0.00 | 0.00 | 42 | 1004.4 |
| 20260904014504 | 93 | 124 | 3.0 | 11.0 | 0.00 | 0.00 | 0.00 | 40 | 1004.3 |
| 20260904013108 | 95 | 228 | 3.0 | 12.0 | 0.00 | 0.00 | 0.00 | 36 | 1004.1 |
| 20260904011605 | 97 | 281 | 2.0 | 7.0 | 0.00 | 0.00 | 0.00 | 32 | 1003.9 |
| 20260904010059 | 99 | 245 | 0.0 | 3.0 | 0.00 | 0.00 | 0.00 | 31 | 1003.8 |
| 20260904004553 | 100 | 224 | 0.0 | 1.0 | 0.00 | 0.00 | 0.00 | 30 | 1003.9 |
| 20260904003057 | 100 | 231 | 1.0 | 5.0 | 0.00 | 0.00 | 0.00 | 29 | 1003.9 |
| 20260904001549 | 100 | 69 | 1.0 | 7.0 | 0.00 | 0.00 | 0.00 | 29 | 1003.9 |
| 20260904000047 | 100 | 100 | 0.0 | 5.0 | 0.00 | 0.00 | 0.00 | 29 | 1004.0 |
| 20260903234545 | 100 | 224 | 1.0 | 4.0 | 0.00 | 0.00 | 0.00 | 30 | 1004.1 |
| 20260903233013 | 100 | 113 | 0.0 | 3.0 | 0.00 | 0.00 | 0.00 | 29 | 1004.2 |
| 20260903231512 | 99 | 108 | 0.0 | 4.0 | 0.00 | 0.00 | 0.00 | 30 | 1004.3 |
| 20260903230016 | 99 | 333 | 2.0 | 5.0 | 0.00 | 0.00 | 0.00 | 30 | 1004.6 |
| 20260903224506 | 101 | 118 | 1.0 | 6.0 | 0.00 | 0.00 | 0.00 | 30 | 1004.7 |
| 20260903223006 | 99 | 323 | 0.0 | 5.0 | 0.00 | 0.00 | 0.00 | 32 | 1004.9 |
| 20260903221502 | 100 | 143 | 0.0 | 5.0 | 0.00 | 0.00 | 0.00 | 29 | 1005.0 |
| 20260903220105 | 101 | 127 | 0.0 | 4.0 | 0.00 | 0.00 | 0.00 | 29 | 1005.4 |
| 20260903214552 | 101 | 264 | 3.0 | 7.0 | 0.00 | 0.00 | 0.00 | 29 | 1005.6 |
| 20260903213053 | 101 | 272 | 0.0 | 5.0 | 0.00 | 0.00 | 0.00 | 29 | 1005.8 |
| 20260903211547 | 101 | 270 | 0.0 | 5.0 | 0.00 | 0.00 | 0.00 | 28 | 1006.0 |
| 20260903210042 | 101 | 255 | 1.0 | 0.0 | 0.00 | 0.00 | 0.00 | 29 | 1006.4 |
| 20260903204541 | 101 | 112 | 1.0 | 6.0 | 0.00 | 0.00 | 0.00 | 28 | 1006.6 |
| 20260903203038 | 101 | 127 | 1.0 | 4.0 | 0.00 | 0.00 | 0.00 | 29 | 1006.8 |
| 20260903201536 | 100 | 104 | 1.0 | 6.0 | 0.00 | 0.00 | 0.00 | 30 | 1006.9 |
| 20260903200033 | 99 | 243 | 0.0 | 4.0 | 0.00 | 0.00 | 0.00 | 31 | 1007.2 |
| 20260903194527 | 98 | 237 | 1.0 | 7.0 | 0.00 | 0.00 | 0.00 | 32 | 1007.2 |
| 20260903193024 | 98 | 96 | 2.0 | 7.0 | 0.00 | 0.00 | 0.00 | 31 | 1007.6 |
| 20260903193021 | 98 | 101 | 2.0 | 7.0 | 0.00 | 0.00 | 0.00 | 31 | 1007.6 |
| 20260903191518 | 98 | 290 | 1.0 | 5.0 | 0.00 | 0.00 | 0.00 | 32 | 1007.8 |
| 20260903190014 | 98 | 98 | 0.0 | 9.0 | 0.00 | 0.00 | 0.00 | 32 | 1008.0 |
| 20260903184508 | 97 | 110 | 2.0 | 6.0 | 0.00 | 0.00 | 0.00 | 31 | 1008.3 |
| 20260903183003 | 97 | 69 | 1.0 | 6.0 | 0.00 | 0.00 | 0.00 | 33 | 1008.6 |
| 20260903181606 | 96 | 94 | 2.0 | 6.0 | 0.00 | 0.00 | 0.00 | 37 | 1008.7 |
| 20260903180104 | 95 | 82 | 2.0 | 6.0 | 0.00 | 0.00 | 0.00 | 37 | 1009.0 |
| 20260903174557 | 96 | 129 | 0.0 | 6.0 | 0.00 | 0.00 | 0.00 | 38 | 1009.2 |
| 20260903173102 | 95 | 117 | 1.0 | 4.0 | 0.00 | 0.00 | 0.00 | 40 | 1009.3 |
| 20260903171554 | 94 | 256 | 1.0 | 8.0 | 0.00 | 0.00 | 0.00 | 42 | 1009.3 |
| 20260903170159 | 93 | 108 | 2.0 | 6.0 | 0.00 | 0.00 | 0.00 | 43 | 1009.3 |
| 20260903164555 | 93 | 118 | 2.0 | 5.0 | 0.00 | 0.00 | 0.00 | 43 | 1009.4 |
| 20260903163049 | 93 | 103 | 1.0 | 4.0 | 0.00 | 0.00 | 0.00 | 44 | 1009.4 |
| 20260903161603 | 93 | 223 | 1.0 | 5.0 | 0.00 | 0.00 | 0.00 | 45 | 1009.5 |
| 20260903160050 | 92 | 121 | 0.0 | 3.0 | 0.00 | 0.00 | 0.00 | 46 | 1009.6 |
| 20260903154553 | 92 | 102 | 0.0 | 2.0 | 0.00 | 0.00 | 0.00 | 46 | 1009.6 |
| 20260903153045 | 90 | 153 | 0.0 | 3.0 | 0.00 | 0.00 | 0.00 | 49 | 1009.7 |
| 20260903151550 | 89 | 147 | 0.0 | 4.0 | 0.00 | 0.00 | 0.00 | 52 | 1009.7 |
| 20260903150045 | 88 | 144 | 0.0 | 5.0 | 0.00 | 0.00 | 0.00 | 53 | 1009.7 |
| 20260903144543 | 87 | 97 | 1.0 | 4.0 | 0.00 | 0.00 | 0.00 | 55 | 1009.8 |
| 20260903143041 | 86 | 48 | 0.0 | 3.0 | 0.00 | 0.00 | 0.00 | 58 | 1009.7 |
| 20260903141540 | 84 | 110 | 1.0 | 2.0 | 0.00 | 0.00 | 0.00 | 60 | 1009.6 |
| 20260903140054 | 83 | 98 | 0.0 | 2.0 | 0.00 | 0.00 | 0.00 | 61 | 1009.5 |
| 20260903134510 | 83 | 91 | 0.0 | 2.0 | 0.00 | 0.00 | 0.00 | 61 | 1009.3 |
| 20260903133010 | 0 | 0.0 | 0.0 | 0.00 | 0.00 | 0.00 | 1009.1 | ||
| 20260903131508 | 0 | 0.0 | 0.0 | 0.00 | 0.00 | 0.00 | 1008.9 | ||
| 20260903130007 | 0 | 0.0 | 0.0 | 0.00 | 0.00 | 0.00 | 1008.8 | ||
| 20260903124506 | 0 | 0.0 | 0.0 | 0.00 | 0.00 | 0.00 | 1008.7 | ||
| 20260903123008 | 0 | 0.0 | 0.0 | 0.00 | 0.00 | 0.00 | 1008.5 | ||
| 20260903121503 | 0 | 0.0 | 0.0 | 0.00 | 0.00 | 0.00 | 1008.4 | ||
| 20260903120003 | 0 | 0.0 | 0.0 | 0.00 | 0.00 | 0.00 | 1008.3 | ||
| 20260903114503 | 0 | 0.0 | 0.0 | 0.00 | 0.00 | 0.00 | 1008.1 | ||
| 20260903113010 | 0 | 0.0 | 0.0 | 0.00 | 0.00 | 0.00 | 1008.1 | ||
| 20260903111533 | 0 | 0.0 | 0.0 | 0.00 | 0.00 | 0.00 | 1008.1 | ||
| 20260903110026 | 0 | 0.0 | 0.0 | 0.00 | 0.00 | 0.00 | 1008.0 | ||
| 20260903104600 | 81 | 44 | 0.0 | 1.0 | 0.00 | 0.00 | 0.00 | 57 | 1007.9 |
| 20260903103050 | 82 | 45 | 0.0 | 0.0 | 0.00 | 0.00 | 0.00 | 56 | 1007.8 |
| 20260903101548 | 83 | 42 | 0.0 | 1.0 | 0.00 | 0.00 | 0.00 | 55 | 1007.8 |
| 20260903100047 | 82 | 29 | 0.0 | 0.0 | 0.00 | 0.00 | 0.00 | 55 | 1008.0 |
| 20260903094546 | 82 | 29 | 0.0 | 0.0 | 0.00 | 0.00 | 0.00 | 53 | 1008.0 |
| 20260903093054 | 82 | 29 | 0.0 | 0.0 | 0.00 | 0.00 | 0.00 | 50 | 1008.0 |
| 20260903091542 | 82 | 28 | 0.0 | 0.0 | 0.00 | 0.00 | 0.00 | 50 | 1007.9 |
| 20260903090038 | 83 | 28 | 0.0 | 0.0 | 0.00 | 0.00 | 0.00 | 47 | 1007.7 |
| 20260903084537 | 84 | 28 | 0.0 | 3.0 | 0.00 | 0.00 | 0.00 | 45 | 1007.7 |
| 20260903083036 | 84 | 203 | 0.0 | 0.0 | 0.00 | 0.00 | 0.00 | 50 | 1007.7 |
| 20260903081501 | 85 | 203 | 0.0 | 0.0 | 0.00 | 0.00 | 0.00 | 46 | 1007.7 |
| 20260903080058 | 87 | 210 | 0.0 | 1.0 | 0.00 | 0.00 | 0.00 | 43 | 1007.7 |
| 20260903074600 | 88 | 236 | 0.0 | 0.0 | 0.00 | 0.00 | 0.00 | 35 | 1007.7 |
| 20260903073103 | 87 | 242 | 0.0 | 1.0 | 0.00 | 0.00 | 0.00 | 32 | 1007.7 |
| 20260903071553 | 87 | 214 | 0.0 | 1.0 | 0.00 | 0.00 | 0.00 | 31 | 1007.7 |
| 20260903070050 | 88 | 213 | 0.0 | 1.0 | 0.00 | 0.00 | 0.00 | 31 | 1007.6 |
| 20260903064548 | 88 | 217 | 0.0 | 1.0 | 0.00 | 0.00 | 0.00 | 35 | 1007.5 |
| 20260903063015 | 89 | 217 | 0.0 | 0.0 | 0.00 | 0.00 | 0.00 | 35 | 1007.4 |
| 20260903061511 | 90 | 217 | 0.0 | 0.0 | 0.00 | 0.00 | 0.00 | 35 | 1007.4 |
| 20260903060012 | 91 | 248 | 0.0 | 2.0 | 0.00 | 0.00 | 0.00 | 35 | 1007.2 |
| 20260903054509 | 90 | 243 | 0.0 | 4.0 | 0.00 | 0.00 | 0.00 | 39 | 1007.3 |
| 20260903053004 | 90 | 238 | 0.0 | 1.0 | 0.00 | 0.00 | 0.00 | 40 | 1007.4 |
| 20260903051503 | 90 | 233 | 0.0 | 1.0 | 0.00 | 0.00 | 0.00 | 40 | 1007.3 |
| 20260903050058 | 90 | 277 | 0.0 | 1.0 | 0.00 | 0.00 | 0.00 | 40 | 1007.2 |
| 20260903044600 | 91 | 284 | 0.0 | 0.0 | 0.00 | 0.00 | 0.00 | 38 | 1007.2 |
| 20260903043052 | 91 | 284 | 0.0 | 1.0 | 0.00 | 0.00 | 0.00 | 38 | 1007.3 |
| 20260903041550 | 91 | 266 | 0.0 | 1.0 | 0.00 | 0.00 | 0.00 | 38 | 1007.3 |
| 20260903040017 | 91 | 266 | 0.0 | 0.0 | 0.00 | 0.00 | 0.00 | 38 | 1007.1 |
| 20260903034515 | 91 | 266 | 0.0 | 0.0 | 0.00 | 0.00 | 0.00 | 36 | 1006.8 |
| 20260903033007 | 92 | 266 | 0.0 | 0.0 | 0.00 | 0.00 | 0.00 | 35 | 1006.7 |